Regional Weather Roundup
Issued by NWS

Home | Current Version | Previous Version | Text Only | Print | Product List | Glossary On
Versions: 1 2 3 4 5 6 7 8 9 10 11 12 13 14 15 16 17 18 19 20 21 22 23 24 25 26 27 28 29 30 31 32 33 34 35 36 37 38 39 40 41 42 43 44 45 46 47 48 49 50
000
ASUS45 KPSR 280310
RWRAZ

ARIZONA HOURLY REGIONAL WEATHER ROUNDUP
NATIONAL WEATHER SERVICE PHOENIX AZ
800 PM MST WED JUL 27 2016

NOTE: FAIR INDICATES FEW OR NO CLOUDS BELOW 12,000 FEET WITH NO
SIGNIFICANT WEATHER AND/OR OBSTRUCTIONS TO VISIBILITY.

AZZ001>003-036-280400-
NORTHWEST ARIZONA

CITY           SKY/WX    TMP DP  RH WIND       PRES   REMARKS
BULLHEAD CITY  PTCLDY   111  41   9 E7        29.67R HX 105
KINGMAN        PTCLDY    91  44  19 S10       29.96R
$$

AZZ004>008-015-016-018-280400-
NORTH CENTRAL ARIZONA

CITY           SKY/WX    TMP DP  RH WIND       PRES   REMARKS
GRAND CANYON   CLEAR     82  43  25 W13       30.24R
WILLIAMS       PTCLDY    77  46  33 W6        30.34R
PRESCOTT       MOCLDY    83  48  29 S3        30.10R
FLAGSTAFF      PTCLDY    76  45  33 VRB3      30.27R
PAYSON         MOCLDY    86  48  26 W6        30.12R HAZE
PAGE           CLEAR     98  31   9 VRB3      29.97R
$$

AZZ009>014-017-280400-
NORTHEAST ARIZONA

CITY           SKY/WX    TMP DP  RH WIND       PRES   REMARKS
WINSLOW        PTCLDY    90  37  15 S8        30.05R
SAINT JOHNS    CLEAR     84  28  13 NE5       30.11R
WINDOW ROCK    CLEAR     80  34  19 CALM      30.23R
SHOW LOW       PTCLDY    81  32  17 CALM      30.20S
$$

AZZ023-280400-
GREATER PHOENIX AREA

CITY           SKY/WX    TMP DP  RH WIND       PRES   REMARKS
PHOENIX        MOCLDY   109  55  17 W13       29.69R HX 108
BUCKEYE        CLEAR    108  48  13 W7        29.71S HX 104
GLENDALE       PTCLDY   109  54  16 W7        29.71R HX 108
LUKE AFB       CLEAR    107  54  17 NW5       29.68S HX 105
DEER VALLEY    PTCLDY   103  54  19 NW6       29.72R HX 101
SCOTTSDALE     MOCLDY   107  54  17 W3        29.74R HX 105
MESA-GATEWAY   MOCLDY   106  54  17 W6        29.74R HX 104
CHANDLER       PTCLDY   106  54  17 W12       29.71R HX 104
$$

AZZ027-028-280400-
SOUTHWEST MARICOPA COUNTY AND PINAL COUNTY

CITY           SKY/WX    TMP DP  RH WIND       PRES   REMARKS
CASA GRANDE    CLEAR    104  57  21 W7        29.77S HX 103
GILA BEND      PTCLDY   107  54  17 SW17G24   29.69R HX 105
$$

AZZ503-504-507>509-280400-
SOUTHEAST ARIZONA

CITY           SKY/WX    TMP DP  RH WIND       PRES   REMARKS
TUCSON         CLOUDY    84  64  50 SE18      29.94R
DAVIS-MONTHAN  LGT RAIN  82  63  51 SE13      29.93R
RYAN FIELD     CLEAR     91  55  29 SE21G35   29.90R
NOGALES          N/A    N/A N/A N/A MISG      30.09R
SIERRA VISTA   CLOUDY    72  64  78 NW10      30.15S
DOUGLAS        CLOUDY    70  65  84 CALM      30.09R
SAFFORD        CLOUDY    84  58  40 VRB6      29.94R
$$

AZZ020-021-025-026-031-280400-
SOUTHWEST ARIZONA

CITY           SKY/WX    TMP DP  RH WIND       PRES   REMARKS
YUMA           MOCLDY   103  65  29 S10       29.69R HX 106
$$

CAZ031-033-041-043-047-048-061-280400-
SOUTHERN CALIFORNIA

CITY           SKY/WX    TMP DP  RH WIND       PRES   REMARKS
DOWNTOWN L.A.  CLEAR     75  64  68 W3        29.87R
L.A. AIRPORT   PTCLDY    72  66  81 W10       29.88R
SAN DIEGO      PTCLDY    73  65  75 NW6       29.90R
BURBANK        CLEAR     84  56  38 SE7       29.87R
ONTARIO        PTCLDY    87  46  24 SW10      29.89R
RIVERSIDE      CLEAR     88  42  20 W8        29.89R
PALM SPRINGS   PTCLDY   107  49  14 W17G30    29.71R HX 104
EL CENTRO NAS  PTCLDY   105  52  17 W14       29.68R HX 103
IMPERIAL       PTCLDY   105  59  22 W13       29.65R HX 105
BLYTHE         CLEAR    111  52  14 SW10      29.68R HX 108
NEEDLES        MOCLDY   110  52  14 SE20G32   29.72R HX 107
$$

NVZ020-UTZ003-280400-
SOUTHERN NEVADA-UTAH

CITY           SKY/WX    TMP DP  RH WIND       PRES   REMARKS
LAS VEGAS      PTCLDY   107  38   9 SW8       29.76S HX 101
SALT LAKE CITY CLEAR     94  29  10 E6        30.01F
$$

NMZ009-TXZ055-280400-
NEW MEXICO-WEST TEXAS

CITY           SKY/WX    TMP DP  RH WIND       PRES   REMARKS
ALBUQUERQUE    CLOUDY    83  43  24 E8        30.12R
EL PASO        PTCLDY    83  61  47 S6        30.02R
$$


........................KEY........................
SKY/WX - SKY CONDITION/WEATHER
TMP    - TEMPERATURE IN FAHRENHEIT
DP     - DEW POINT IN FAHRENHEIT
RH     - RELATIVE HUMIDITY IN PERCENT
WIND   - DIRECTION AND SPEED IN MILES PER HOUR (MPH)
VRB    - VARIABLE WIND DIRECTION
PRES   - MEAN SEA LEVEL PRESSURE IN INCHES OF MERCURY
         F - FALLING PRESSURE   R - RISING PRESSURE
         S - STEADY PRESSURE
VSB    - VISIBILITY IN MILES
HX     - HEAT INDEX IN FAHRENHEIT
WCI    - WIND CHILL INDEX IN FAHRENHEIT
TC     - TEMPERATURE IN CELSIUS WHICH IS ALSO KNOWN AS
         TEMPERATURE IN CENTIGRADE
AFB    - AIR FORCE BASE
         LUKE AFB IS LUKE AIR FORCE BASE
         DAVIS-MONTHAN IS DAVIS-MONTHAN AIR FORCE BASE
NAS    - NAVAL AIR STATION
         EL CENTRO NAS IS EL CENTRO NAVAL AIR STATION
N/A    - NOT AVAILABLE




USA.gov is the U.S. government's official web portal to all federal, state and local government web resources and services.